Location: *
(46.0770°N, 1.6444°E)
Time: 14:24:41
(UTC+00:00)

Cosmos 2341 Rocket - Pass Details

Date: 16 September 2019
Orbit: 967 x 1005 km, 82.9° (Epoch: 14 October)

Event Time Altitude Azimuth Distance (km) Brightness Sun altitude
Rises 19:09:55 0° 355° (N) 3,698 7.3 -12.1°
Reaches altitude 10° 19:12:35 10° 2° (N) 2,741 6.5 -12.6°
Maximum altitude 19:18:35 46° 75° (ENE) 1,295 4.3 -13.6°
Enters shadow 19:23:53 13° 145° (SE) 2,493 5.7 -14.4°
